AO-07 1 07530U 74089B 26133.26012485 -.00000031 00000-0 98589-4 0 9994 2 07530 101.9917 146.1410 0012149 196.0376 174.7655 12.53697478356147 UO-11 1 14781U 84021B 26132.84792310 .00000849 00000-0 92196-4 0 9996 2 14781 97.8037 98.8254 0006342 309.0891 50.9763 14.90697322251863 AO-27 1 22825U 93061C 26133.17764638 .00000044 00000-0 33770-4 0 9997 2 22825 98.6891 200.6008 0008065 195.5210 164.5726 14.30932290701990 FO-29 1 24278U 96046B 26133.04353655 -.00000021 00000-0 13787-4 0 9998 2 24278 98.5278 346.7226 0349719 187.4780 172.1064 13.53272328468412 GO-32 1 25397U 98043D 26132.94280304 .00000028 00000-0 32084-4 0 9995 2 25397 99.0064 124.8147 0001006 13.0735 347.0469 14.24421275446312 ISS 1 25544U 98067A 26133.16648102 .00004986 00000-0 97915-4 0 9995 2 25544 51.6312 113.4597 0007515 53.2822 306.8856 15.49201863566327 NO-44 1 26931U 01043C 26133.02690855 .00000066 00000-0 55531-4 0 9994 2 26931 67.0512 335.2127 0006280 263.7293 96.3094 14.31942007285417 SO-50 1 27607U 02058C 26133.22440557 .00000595 00000-0 88040-4 0 9994 2 27607 64.5522 237.1515 0075631 268.8586 90.3855 14.82970672259278 CO-55 1 27844U 03031E 26132.98314120 .00000190 00000-0 10121-3 0 9992 2 27844 98.6747 141.9842 0008342 290.4636 69.5647 14.24313180186665 RS-22 1 27939U 03042A 26133.31870664 .00000517 00000-0 88010-4 0 9993 2 27939 98.3474 316.6947 0011869 25.4711 99.1486 14.73403759210416 CO-65 1 32785U 08021C 26133.24304966 .00002806 00000-0 18106-3 0 9990 2 32785 97.8259 113.9489 0010053 139.4134 220.7845 15.09107298979922 CO-66 1 32791U 08021J 26133.25916521 .00010782 00000-0 35667-3 0 9997 2 32791 97.7523 129.5258 0005004 83.7046 276.4764 15.31523332981941 RS-30 1 32953U 08025A 26133.25146174 .00000020 00000-0 70605-4 0 9996 2 32953 82.5072 17.1717 0020320 29.8657 330.3578 12.43178012815356 SRMSAT 1 37841U 11058D 26132.72776162 .00000364 00000-0 53462-4 0 9997 2 37841 19.9726 274.1025 0011686 173.6263 214.7014 14.11567690752801 ZACUBE-1 1 39417U 13066B 26132.87677755 .00003027 00000-0 23831-3 0 9998 2 39417 97.8118 95.0221 0041873 11.9961 348.2250 15.00908497675431 Delfi-N3xt 1 39428U 13066N 26133.03623471 .00004871 00000-0 43084-3 0 9995 2 39428 97.8343 53.3897 0074136 324.9267 34.7083 14.94674058669375 GOMX-1 1 39430U 13066Q 26133.31998035 .00001084 00000-0 16963-3 0 9999 2 39430 97.6516 335.9815 0128420 188.8511 171.0432 14.69317766664798 LO-74 1 39440U 13066AA 26133.09277987 .00001707 00000-0 16254-3 0 9996 2 39440 97.8890 81.9361 0058859 142.3872 218.1487 14.93492653671756 AO-73 1 39444U 13066AE 26133.18290422 .00004657 00000-0 29448-3 0 9995 2 39444 97.8259 103.9150 0035360 325.6532 34.2410 15.09023935674387 DTUSAT-2 1 40030U 14033W 26132.96296650 .00004204 00000-0 23198-3 0 9991 2 40030 98.0866 128.4690 0007918 9.2046 350.9327 15.14545048647353 LILACSAT-2 1 40908U 15049K 26133.30025992 .00010193 00000-0 18177-3 0 9996 2 40908 97.4696 168.8404 0007584 36.4598 323.7168 15.50261681590340 Horyu-4 1 41340U 16012D 26132.86732350 .00135031 00000-0 74881-3 0 9994 2 41340 30.9892 334.3982 0005461 23.8940 336.1970 15.78006687565204 Lapan A3 1 41603U 16040E 26133.26923531 .00002194 00000-0 71303-4 0 9995 2 41603 97.1488 130.5703 0011712 133.6478 226.5738 15.32879239549466 CAS-2T 1 41847U 16066G 26133.19282704 .00000500 00000-0 80287-4 0 9995 2 41847 98.3825 209.3252 0341084 235.6305 121.2191 14.44591031499740 TechnoSat 1 42829U 17042E 26133.00731272 .00001518 00000-0 11167-3 0 9990 2 42829 97.4234 292.0186 0017074 210.2323 149.7920 15.04729806481418 AO-91 1 43017U 17073E 26132.87740102 .00005964 00000-0 26261-3 0 9990 2 43017 97.4761 0.8269 0154160 90.5575 271.3322 15.12053585460054 S-Net D 1 43186U 18014G 26133.16069157 .00002928 00000-0 15440-3 0 9994 2 43186 97.5393 38.1749 0009577 131.5141 228.6915 15.16330148453452 S-Net B 1 43187U 18014H 26133.17146107 .00002749 00000-0 14529-3 0 9995 2 43187 97.5397 38.1710 0010294 128.0162 232.2001 15.16300557453455 S-Net A 1 43188U 18014J 26133.15974459 .00002958 00000-0 15586-3 0 9999 2 43188 97.5407 38.3615 0010193 128.6051 231.6097 15.16337043453453 S-Net C 1 43189U 18014K 26133.17514839 .00002712 00000-0 14337-3 0 9995 2 43189 97.5425 38.4462 0011680 123.0548 237.1808 15.16291654452005 Ten-Koh 1 43677U 18084G 26133.10189274 .00000637 00000-0 52553-4 0 9995 2 43677 98.0764 323.9926 0008235 231.0369 129.0122 15.02776775410895 PO-101 1 43678U 18084H 26133.29006141 .00001782 00000-0 14736-3 0 9999 2 43678 98.1105 328.0029 0011959 291.7450 68.2499 15.00274512410988 QO-100 1 43700U 18090A 26133.18327963 .00000158 00000-0 00000-0 0 9990 2 43700 0.0141 270.3589 0001577 176.2034 236.2112 1.00274401 27329 MinXSS-2 1 43758U 18099A 26133.00285454 .00023586 00000-0 50831-3 0 9991 2 43758 97.4550 208.3220 0007501 43.8681 316.3162 15.44563270408695 AO-95 1 43770U 18099N 26132.60956847 .00006857 00000-0 26976-3 0 9996 2 43770 97.4410 193.0052 0010442 112.2597 247.9749 15.25919266407791 SNUSat 2 1 43782U 18099AA 26133.08350713 .00004905 00000-0 22214-3 0 9995 2 43782 97.4090 187.0170 0011681 65.0694 295.1754 15.21281030407698 SnugLite 1 43784U 18099AC 26133.07961472 .00006580 00000-0 25569-3 0 9993 2 43784 97.3900 187.7221 0004185 72.4510 287.7186 15.26386478407966 ITASat 1 1 43786U 18099AE 26132.84008112 .00004385 00000-0 21479-3 0 9999 2 43786 97.4059 185.0649 0014350 114.2839 245.9896 15.18584788407546 EAGLET 1 1 43790U 18099AJ 26133.06217854 .00002230 00000-0 13094-3 0 9995 2 43790 97.4262 183.6636 0012875 105.9878 254.2773 15.12660340407020 ESEO 1 43792U 18099AL 26133.05622052 .00001664 00000-0 12400-3 0 9996 2 43792 97.3997 171.9459 0013364 93.5769 266.6986 15.04133209406521 JO-97 1 43803U 18099AX 26133.11013581 .00011290 00000-0 36177-3 0 9990 2 43803 97.4155 195.8505 0006377 50.5277 309.6528 15.32511515408254 Suomi 100 1 43804U 18099AY 26132.90819499 .00007773 00000-0 29044-3 0 9995 2 43804 97.4215 193.4513 0010997 53.2083 307.0163 15.27580246408037 ISAT 1 43879U 18111D 26133.05954130 .00051304 00000-0 64382-3 0 9994 2 43879 97.5896 65.7490 0008220 82.7219 277.4971 15.59538690405680 UWE-4 1 43880U 18111E 26133.04570664 .00020914 00000-0 46037-3 0 9991 2 43880 97.5856 59.8808 0010677 92.1115 268.1356 15.43932429405353 Sparrow 1 43881U 18111F 26132.81207825 .00070946 00000-0 69746-3 0 9994 2 43881 97.6126 70.5623 0007698 107.6561 252.5539 15.65762788405821 Prox-1 1 44339U 19036A 26132.90205644 .00008587 00000-0 84513-3 0 9998 2 44339 23.9965 349.7894 0006508 346.0021 14.0298 14.89761063368206 Taurus 1 1 44530U 19059C 26133.30104228 .00002625 00000-0 42977-3 0 9992 2 44530 98.6389 295.9815 0009435 67.3682 292.8520 14.71706216353513 TO-108 1 44881U 19093C 26133.24334529 .00000668 00000-0 81587-4 0 9997 2 44881 97.7538 206.3266 0012987 195.7812 164.3001 14.86461687346224 RS-44 1 44909U 19096E 26133.05800558 .00000013 00000-0 10535-4 0 9999 2 44909 82.5231 3.0518 0216673 226.3468 131.9492 12.79748097297856 SALSAT 1 46495U 20068K 26132.94867616 .00005386 00000-0 19232-3 0 9997 2 46495 97.8858 133.8843 0011525 71.0306 289.2181 15.29266241309973 CSS (TIANHE-1) 1 48274U 21035A 26133.15850889 .00011273 00000-0 12827-3 0 9992 2 48274 41.4670 175.0334 0004148 295.5863 64.4547 15.62165519287690 CUTE 1 49263U 21088D 26132.77986990 .00133390 00000-0 76236-3 0 9998 2 49263 97.4190 229.0724 0001596 275.6751 84.4333 15.78491621256941 TeikyoSat 4 1 49396U 21102B 26133.05237455 .00001055 00000-0 69715-4 0 9996 2 49396 97.3698 163.9005 0013509 58.7668 301.4883 15.09378186247421 Z-Sat 1 49399U 21102E 26133.26412947 .00002156 00000-0 10896-3 0 9991 2 49399 97.3360 169.6497 0017086 15.6589 344.5170 15.17989983248145 KOSEN 1 1 49402U 21102H 26133.07320214 .00004306 00000-0 16821-3 0 9993 2 49402 97.3220 175.9206 0012753 338.8390 21.2320 15.26337691248665 HO-113 1 50466U 21131B 26133.27515190 .00000121 00000-0 51118-4 0 9998 2 50466 98.4955 225.8572 0003881 185.6183 174.4963 14.41322291230082 SNUGLITE 2 1 52899U 22065F 26132.63497799 .00000603 00000-0 12346-3 0 9994 2 52899 98.2154 277.5396 0008531 130.0913 230.1038 14.64278546205794 UmKA 1 (RS40S) 1 57172U 23091G 26133.21690178 .00003430 00000-0 16038-3 0 9997 2 57172 97.5075 192.0555 0011567 237.0711 122.9412 15.20404353158692 CubeBel-2 (EU11S) 1 57175U 23091K 26133.22976139 .00006607 00000-0 24214-3 0 9999 2 57175 97.5074 196.1547 0008964 231.3580 128.6857 15.28310581158961 RS-38S 1 57189U 23091Z 26133.21601836 .00009615 00000-0 28638-3 0 9998 2 57189 97.5111 202.0297 0007684 183.9911 176.1272 15.34883263159324 SONATE-2 1 59112U 24043Q 26132.86300328 .00024600 00000-0 35218-3 0 9999 2 59112 97.5494 281.1759 0005910 332.4957 27.5983 15.56174623122390 GRBBeta 1 60237U 24128C 26132.97496547 .00002703 00000-0 19346-3 0 9998 2 60237 61.9907 339.7812 0045303 127.3925 233.1305 15.06341838100961 Curium One 1 60242U 24128H 26133.12477881 .00005508 00000-0 32513-3 0 9999 2 60242 61.9794 329.9054 0044860 123.7214 236.8170 15.11930867101152 ROBUSTA-3A 1 60243U 24128J 26133.13646260 .00004576 00000-0 27835-3 0 9995 2 60243 61.9870 332.1433 0046005 121.2475 239.3140 15.11107833101121 CatSat 1 60246U 24125J 26132.84660279 .00031128 00000-0 46274-3 0 9999 2 60246 97.2131 344.9922 0021448 314.4742 45.4758 15.54842708101896 HYPERVIEW-1G (RS66S) 1 61772U 24199AP 26133.10384742 .00073671 00000-0 66303-3 0 9997 2 61772 97.2953 11.2701 0007429 62.9349 297.2670 15.67955261129166 AO-123 1 61781U 24199AY 26133.10250923 .00005300 00000-0 15713-3 0 9993 2 61781 97.3053 2.0954 0015853 77.0740 283.2273 15.35146430128548 JINJUSat 1B 1 63210U 25052A 26133.15715823 .00010724 00000-0 34526-3 0 9990 2 63210 97.4048 29.8898 0002986 170.4887 189.6412 15.32388774 64739 NUSHSAT 1 1 63211U 25052B 26132.99299302 .00013474 00000-0 40432-3 0 9999 2 63211 97.4025 30.1781 0002640 168.7931 191.3371 15.34575675 64743 TEVEL2-4 1 63213U 25052D 26133.15177645 .00011956 00000-0 37313-3 0 9992 2 63213 97.3947 29.5134 0001641 173.1099 187.0166 15.33358441 64749 TEVEL2-5 1 63214U 25052E 26132.97276000 .00011308 00000-0 35485-3 0 9996 2 63214 97.3948 29.2919 0001593 172.4870 187.6397 15.33198220 64710 TEVEL2-6 1 63215U 25052F 26132.46209847 .00010871 00000-0 34176-3 0 9996 2 63215 97.3947 28.7660 0001596 179.6392 180.4852 15.33149501 64634 TEVEL2-1 1 63217U 25052H 26132.21813958 .00010003 00000-0 31962-3 0 9992 2 63217 97.3919 28.1875 0001000 201.0978 159.0223 15.32655601 64587 TEVEL2-3 1 63218U 25052J 26132.67098573 .00010612 00000-0 33828-3 0 9990 2 63218 97.3924 28.6575 0001030 198.4062 161.7143 15.32713071 64657 TEVEL2-2 1 63219U 25052K 26132.41448572 .00010162 00000-0 32453-3 0 9994 2 63219 97.3921 28.3853 0001022 202.9376 157.1820 15.32665711 64615 TEVEL2-9 1 63237U 25052AD 26132.21621942 .00009081 00000-0 30768-3 0 9991 2 63237 97.3983 27.6373 0004027 268.4155 91.6624 15.30786107 64527 TEVEL2-7 1 63238U 25052AE 26133.23126575 .00008753 00000-0 29896-3 0 9992 2 63238 97.3986 28.5794 0004126 263.2484 96.8287 15.30537132 64676 TEVEL2-8 1 63239U 25052AF 26132.97761238 .00010154 00000-0 34655-3 0 9991 2 63239 97.3986 28.3046 0004119 265.7044 94.3726 15.30515803 64634 HYDRA-W 1 63490U 25052BL 26113.93882235 .05662091 24406-5 29537-2 0 9997 2 63490 97.3690 18.2798 0008685 203.5899 156.4993 16.20186780 62336 HADES-ICM (SO-125) 1 63492U 25052BN 26132.47089678 .00683974 19664-3 18689-2 0 9991 2 63492 97.3771 36.5368 0009249 170.5020 189.6432 15.94023464 65158 SPIRONE 1 66657U 25274H 26132.54406606 .00001561 00000-0 15383-3 0 9991 2 66657 97.7479 62.3506 0013366 128.1864 232.0562 14.93394596 24904 K-HERO 1 66660U 25274L 26133.02760098 .00001378 00000-0 13496-3 0 9996 2 66660 97.7487 62.9621 0015175 131.2043 229.0488 14.93823554 24987 SNUGLITE-III DURI 1 66661U 25274M 26132.54763218 .00001328 00000-0 13005-3 0 9991 2 66661 97.7482 62.5080 0015750 134.0230 226.2291 14.93874970 24918 SilverSat 1 66909U 98067XV 26113.44966717 .07226154 12288-4 11979-2 0 9998 2 66909 51.6027 190.0749 0007952 333.4666 26.5949 16.32457272 22308 SAKHACUBE-CHOLBON 1 67290U 25313AU 26132.65127146 .00005741 00000-0 23803-3 0 9990 2 67290 97.3943 208.1476 0010917 118.9289 241.3045 15.24216931 20561 RS95S (QMR-KWT-2) 1 67291U 25313AV 26132.99665121 .00008865 00000-0 35390-3 0 9992 2 67291 97.3941 208.5983 0010629 117.6053 242.6266 15.25338274 20624 Ten-Koh2 1 68261U 25241B 26133.25358371 .00004239 00000-0 18934-3 0 9992 2 68261 51.6537 125.8369 0006277 35.0377 325.1013 15.23431099 9587 JACK-002 1 68417U 26067B 26133.11962896 .00004338 00000-0 21088-3 0 9994 2 68417 97.4542 92.1617 0003748 66.6253 293.5376 15.18943140 6620 DISCO 2 1 68431U 26067R 26133.13228431 .00004885 00000-0 23978-3 0 9999 2 68431 97.4579 92.1664 0004309 105.0182 255.1529 15.18546168 6624 HADES-SA (SpinnyONE) 1 68446U 26067AG 26132.83338234 .00011232 00000-0 55731-3 0 9990 2 68446 97.4387 91.6989 0006910 177.1746 182.9529 15.17853429 6567 PARUS-6U1 1 68456U 26067AS 26132.84035003 .00003740 00000-0 19184-3 0 9997 2 68456 97.4527 91.7639 0005840 167.0327 193.1058 15.17137677 6573 SAL-E 1 68458U 26067AU 26133.10350095 .00005255 00000-0 26734-3 0 9992 2 68458 97.4457 91.9843 0005810 174.7357 185.3939 15.17245854 6614 FSI-SAT 2 1 68792U 26088A 26133.15318294 .00003054 00000-0 21030-3 0 9995 2 68792 97.5025 283.3096 0013646 222.7758 137.2408 15.06538275 3017 OrigamiSat 2 1 68795U 26088D 26132.93460451 .00001817 00000-0 12186-3 0 9993 2 68795 97.5031 283.1437 0015409 195.5151 164.5607 15.07995138 2982 ARICA 2 1 68796U 26088E 26132.86681919 .00002508 00000-0 16614-3 0 9998 2 68796 97.5016 283.0755 0015480 194.0835 165.9964 15.08122619 2977 WASEDA-SAT-ZERO-II 1 68797U 26088F 26133.13141973 .00003677 00000-0 24100-3 0 9998 2 68797 97.5014 283.3356 0015491 192.9596 167.1236 15.08215416 3019 MANGARO-II-Piscus 1 68798U 26088G 26132.39735774 .00002095 00000-0 13787-3 0 9996 2 68798 97.5022 282.6310 0018719 199.5324 160.5190 15.08504768 2903 IO-86 1 40931U 25360.30710720 .00000000 00000-0 12800-3 0 00 2 40931 6.0006 332.5373 0012733 338.8432 8.1437 14.79075515 01 LILIUM-4 1 71922C 26067AC 26089.50133053 -.00014632 00000 0 -74472-3 0 04 2 71922 97.4497 49.1617 0004341 5.9603 355.7042 15.16896692 16